K5AGY Weather Reports


Display with metric or nautical units.
time (UTC)temp
F
wind
direction
speed
MPH
gust
MPH
rain 1hr
in
rain 24hr
in
rain mn
in
humidity
%
barometer
mb
20201023000020 82 122 4.0 11.0 0.00 0.00 0.00 74 1011.4
20201022234603 83 119 6.0 11.0 0.00 0.00 0.00 72 1011.3
20201022233018 84 55 4.0 12.0 0.00 0.00 0.00 71 1011.4
20201022231545 85 103 5.0 10.0 0.00 0.00 0.00 70 1011.1
20201022224632 86 131 6.0 13.0 0.00 0.00 0.00 64 1010.9
20201022221602 87 94 9.0 15.0 0.00 0.00 0.00 62 1011.0
20201022220224 88 146 8.0 12.0 0.00 0.00 0.00 60 1011.0
20201022214622 88 170 7.0 17.0 0.00 0.00 0.00 61 1010.9
20201022213119 88 85 6.0 14.0 0.00 0.00 0.00 65 1011.0
20201022211540 88 155 8.0 16.0 0.00 0.00 0.00 62 1010.9
20201022210123 89 107 7.0 15.0 0.00 0.00 0.00 59 1011.0
20201022204552 88 135 7.0 13.0 0.00 0.00 0.00 61 1011.0
20201022203212 89 152 10.0 15.0 0.00 0.00 0.00 59 1011.1
20201022201520 89 162 6.0 13.0 0.00 0.00 0.00 60 1011.1
20201022200142 89 169 5.0 14.0 0.00 0.00 0.00 61 1011.3
20201022194624 88 122 8.0 17.0 0.00 0.00 0.00 62 1011.6
20201022193032 88 141 6.0 16.0 0.00 0.00 0.00 65 1011.8
20201022191648 88 81 5.0 14.0 0.00 0.00 0.00 64 1011.9
20201022190026 88 122 5.0 13.0 0.00 0.00 0.00 64 1012.4
20201022184557 87 214 2.0 12.0 0.00 0.00 0.00 68 1012.6
20201022183029 86 134 4.0 8.0 0.00 0.00 0.00 69 1013.1
20201022182333 86 128 6.0 12.0 0.00 0.00 0.00 70 1013.6
20201022174617 85 140 6.0 13.0 0.00 0.00 0.00 74 1014.0
20201022173245 82 203 3.0 13.0 0.00 0.00 0.00 81 1014.3
20201022171601 83 156 3.0 9.0 0.00 0.00 0.00 77 1014.7
20201022170159 84 149 4.0 11.0 0.00 0.00 0.00 75 1014.8
20201022164523 83 68 5.0 9.0 0.00 0.00 0.00 78 1015.0
20201022163145 82 110 5.0 13.0 0.00 0.00 0.00 81 1015.1
20201022161519 81 149 5.0 11.0 0.00 0.00 0.00 82 1015.1
20201022160115 80 125 1.0 5.0 0.00 0.00 0.00 86 1015.1
20201022154524 81 70 4.0 7.0 0.00 0.00 0.00 85 1015.2
20201022153054 79 91 4.0 8.0 0.00 0.00 0.00 87 1015.2
20201022151654 77 77 3.0 8.0 0.00 0.00 0.00 91 1015.2
20201022150024 77 79 4.0 11.0 0.00 0.00 0.00 91 1015.2
20201022144654 76 120 4.0 8.0 0.00 0.00 0.00 93 1015.1
20201022143017 75 75 2.0 5.0 0.00 0.00 0.00 94 1015.1
20201022141553 75 104 2.0 7.0 0.00 0.00 0.00 94 1015.0
20201022140059 75 96 1.0 3.0 0.00 0.00 0.00 96 1014.8
20201022134646 74 69 1.0 3.0 0.00 0.00 0.00 96 1014.6
20201022131601 74 82 0.0 2.0 0.00 0.00 0.00 97 1014.4
20201022130200 74 77 0.0 2.0 0.00 0.00 0.00 97 1014.4
20201022124550 73 101 0.0 3.0 0.00 0.00 0.00 97 1014.4
20201022123159 73 95 0.0 4.0 0.00 0.00 0.00 97 1014.3
20201022121536 73 86 0.0 2.0 0.00 0.00 0.00 97 1014.2
20201022120117 73 116 0.0 1.0 0.00 0.00 0.00 97 1014.2
20201022114518 73 162 0.0 2.0 0.00 0.00 0.00 97 1014.3
20201022113109 73 103 0.0 2.0 0.00 0.00 0.00 97 1014.2
20201022111533 73 102 1.0 2.0 0.00 0.00 0.00 97 1014.1
20201022110130 73 98 1.0 5.0 0.00 0.00 0.00 97 1014.1
20201022104527 73 115 2.0 5.0 0.00 0.00 0.00 97 1014.1
20201022103057 73 125 1.0 5.0 0.00 0.00 0.00 97 1014.0
20201022101520 73 128 2.0 7.0 0.00 0.00 0.00 97 1014.1
20201022100149 73 104 2.0 8.0 0.00 0.00 0.00 97 1014.0
20201022094519 73 101 5.0 8.0 0.00 0.00 0.00 97 1014.0
20201022093056 73 123 5.0 12.0 0.00 0.00 0.00 97 1013.9
20201022091521 73 101 4.0 9.0 0.00 0.00 0.00 97 1014.0
20201022090146 73 108 4.0 8.0 0.00 0.00 0.00 97 1014.0
20201022084522 73 72 4.0 7.0 0.00 0.00 0.00 97 1014.1
20201022083041 73 114 3.0 7.0 0.00 0.00 0.00 97 1014.2
20201022081635 73 125 3.0 7.0 0.00 0.00 0.00 97 1014.3
20201022080046 73 112 4.0 12.0 0.00 0.00 0.00 96 1014.5
20201022074645 73 107 3.0 10.0 0.00 0.00 0.00 96 1014.5
20201022073049 73 86 2.0 7.0 0.00 0.00 0.00 96 1014.5
20201022071626 73 144 6.0 12.0 0.00 0.00 0.00 96 1014.4
20201022064528 73 103 3.0 8.0 0.00 0.00 0.00 96 1014.6
20201022063249 73 100 3.0 9.0 0.00 0.00 0.00 96 1014.6
20201022061556 73 105 3.0 6.0 0.00 0.00 0.00 96 1014.7
20201022060232 73 103 3.0 8.0 0.00 0.00 0.00 96 1014.8
20201022054530 72 89 2.0 5.0 0.00 0.00 0.00 95 1015.0
20201022053129 72 111 2.0 7.0 0.00 0.00 0.00 95 1015.0
20201022051520 72 98 2.0 6.0 0.00 0.00 0.00 95 1015.1
20201022050126 72 79 1.0 2.0 0.00 0.00 0.00 94 1015.1
20201022044528 73 103 1.0 3.0 0.00 0.00 0.00 94 1015.2
20201022043112 73 113 2.0 5.0 0.00 0.00 0.00 93 1015.3
20201022041545 73 92 2.0 4.0 0.00 0.00 0.00 93 1015.3
20201022040116 74 108 1.0 6.0 0.00 0.00 0.00 92 1015.4
20201022034513 74 113 2.0 6.0 0.00 0.00 0.00 91 1015.3
20201022033106 74 122 2.0 5.0 0.00 0.00 0.00 90 1015.4
20201022031525 75 116 2.0 6.0 0.00 0.00 0.00 90 1015.3
20201022030129 75 118 3.0 6.0 0.00 0.00 0.00 88 1015.4
20201022024521 76 119 3.0 8.0 0.00 0.00 0.00 87 1015.2
20201022023046 76 129 2.0 5.0 0.00 0.00 0.00 85 1015.1
20201022021512 77 113 2.0 7.0 0.00 0.00 0.00 83 1015.1
20201022020148 77 122 3.0 7.0 0.00 0.00 0.00 81 1015.1
20201022014521 77 109 3.0 6.0 0.00 0.00 0.00 80 1015.1
20201022013104 78 109 3.0 6.0 0.00 0.00 0.00 79 1015.0
20201022011516 78 107 3.0 7.0 0.00 0.00 0.00 78 1014.8
20201022010040 79 92 2.0 6.0 0.00 0.00 0.00 77 1014.7
20201022004513 80 89 4.0 7.0 0.00 0.00 0.00 76 1014.5
20201022003145 81 98 3.0 9.0 0.00 0.00 0.00 74 1014.4
20201022001508 82 123 6.0 12.0 0.00 0.00 0.00 73 1014.2